EW1336 Weather Reports


Display with metric or nautical units.
time (UTC)temp
F
wind
direction
speed
MPH
gust
MPH
rain 1hr
in
rain 24hr
in
rain mn
in
humidity
%
barometer
mb
20260831131529 46 141 0.0 0.0 0.00 0.00 0.00 51 1008.4
20260831130027 47 137 0.0 1.0 0.00 0.00 0.00 51 1008.4
20260831124546 47 191 0.0 1.0 0.00 0.00 0.00 51 1008.2
20260831123024 47 179 0.0 0.0 0.00 0.00 0.00 51 1008.2
20260831121524 47 179 0.0 0.0 0.00 0.00 0.00 51 1008.2
20260831120023 47 167 0.0 0.0 0.00 0.00 0.00 52 1008.2
20260831114534 47 162 0.0 0.0 0.00 0.00 0.00 52 1008.2
20260831113020 47 180 0.0 0.0 0.00 0.00 0.00 54 1008.3
20260831111517 47 183 0.0 0.0 0.00 0.00 0.00 55 1008.5
20260831110018 47 149 0.0 0.0 0.00 0.00 0.00 56 1008.5
20260831104524 48 149 0.0 1.0 0.00 0.00 0.00 55 1008.5
20260831103015 48 138 0.0 0.0 0.00 0.00 0.00 56 1008.6
20260831101512 48 134 0.0 0.0 0.00 0.00 0.00 56 1008.6
20260831100010 48 122 0.0 1.0 0.00 0.00 0.00 56 1008.6
20260831094510 49 188 0.0 1.0 0.00 0.00 0.00 56 1008.7
20260831093008 49 145 0.0 1.0 0.00 0.00 0.00 55 1008.7
20260831091506 49 150 0.0 1.0 0.00 0.00 0.00 56 1008.8
20260831090006 49 183 0.0 0.0 0.00 0.00 0.00 57 1008.9
20260831084509 48 151 0.0 1.0 0.00 0.00 0.00 59 1009.0
20260831083002 48 179 0.0 0.0 0.00 0.00 0.00 59 1009.0
20260831081501 48 187 0.0 0.0 0.00 0.00 0.00 59 1009.1
20260831074558 49 215 0.0 1.0 0.00 0.00 0.00 58 1009.1
20260831073059 49 186 0.0 0.0 0.00 0.00 0.00 58 1009.1
20260831071554 49 191 0.0 0.0 0.00 0.00 0.00 59 1009.0
20260831070055 49 201 0.0 0.0 0.00 0.00 0.00 59 1009.1
20260831064553 50 201 0.0 0.0 0.00 0.00 0.00 60 1009.1
20260831063052 50 197 0.0 0.0 0.00 0.00 0.00 61 1009.1
20260831061552 50 198 0.0 0.0 0.00 0.00 0.00 62 1009.0
20260831060051 50 169 0.0 0.0 0.00 0.00 0.00 61 1009.1
20260831054550 51 149 0.0 1.0 0.00 0.00 0.00 61 1009.0
20260831053050 51 118 0.0 0.0 0.00 0.00 0.00 61 1009.1
20260831051550 52 117 0.0 0.0 0.00 0.00 0.00 60 1009.2
20260831044603 53 117 0.0 0.0 0.00 0.00 0.00 58 1009.1
20260831043048 53 201 0.0 0.0 0.00 0.00 0.00 58 1009.0
20260831041559 54 203 0.0 0.0 0.00 0.00 0.00 57 1009.0
20260831040048 55 204 0.0 0.0 0.00 0.00 0.00 57 1008.8
20260831034546 56 204 0.0 0.0 0.00 0.00 0.00 56 1008.6
20260831033048 57 204 0.0 0.0 0.00 0.00 0.00 55 1008.4
20260831031552 58 204 0.0 0.0 0.00 0.00 0.00 55 1008.4
20260831030053 59 204 0.0 0.0 0.00 0.00 0.00 54 1008.2
20260831024608 60 204 0.0 0.0 0.00 0.00 0.00 54 1008.1
20260831023044 61 204 0.0 0.0 0.00 0.00 0.00 52 1007.9
20260831021544 62 204 0.0 0.0 0.00 0.00 0.00 50 1008.0
20260831014558 64 259 0.0 0.0 0.00 0.00 0.00 46 1008.1
20260831013042 65 259 0.0 1.0 0.00 0.00 0.00 43 1008.0
20260831011542 66 246 0.0 1.0 0.00 0.00 0.00 40 1008.0
20260831010046 67 280 0.0 1.0 0.00 0.00 0.00 39 1008.2
20260831004538 68 219 0.0 1.0 0.00 0.00 0.00 36 1008.1
20260831003039 69 338 0.0 1.0 0.00 0.00 0.00 36 1008.2
20260831001542 70 227 0.0 1.0 0.00 0.00 0.00 35 1008.2
20260831000036 70 242 0.0 1.0 0.00 0.00 0.00 35 1008.4
20260830234553 71 61 0.0 1.0 0.00 0.00 0.00 31 1008.4
20260830233035 72 223 0.0 2.0 0.00 0.00 0.00 30 1008.4
20260830231532 72 256 0.0 1.0 0.00 0.00 0.00 30 1008.5
20260830230036 72 231 0.0 2.0 0.00 0.00 0.00 28 1008.7
20260830224533 72 269 0.0 2.0 0.00 0.00 0.00 27 1008.8
20260830223024 71 92 0.0 3.0 0.00 0.00 0.00 30 1009.0
20260830221524 70 252 0.0 1.0 0.00 0.00 0.00 28 1009.2
20260830220029 69 190 0.0 4.0 0.00 0.00 0.00 28 1009.6
20260830214519 69 249 0.0 2.0 0.00 0.00 0.00 29 1009.7
20260830213018 71 355 0.0 3.0 0.00 0.00 0.00 26 1009.9
20260830211516 71 194 0.0 1.0 0.00 0.00 0.00 27 1010.2
20260830210015 71 267 0.0 2.0 0.00 0.00 0.00 29 1010.3
20260830204513 70 183 0.0 2.0 0.00 0.00 0.00 27 1010.5
20260830203011 70 315 0.0 2.0 0.00 0.00 0.00 25 1010.7
20260830201531 70 271 0.0 2.0 0.00 0.00 0.00 26 1010.5
20260830200009 70 287 0.0 2.0 0.00 0.00 0.00 27 1010.6
20260830194509 69 259 0.0 2.0 0.00 0.00 0.00 25 1010.8
20260830193003 67 254 0.0 2.0 0.00 0.00 0.00 25 1010.9
20260830191502 67 231 0.0 2.0 0.00 0.00 0.00 25 1011.1
20260830190059 66 226 0.0 1.0 0.00 0.00 0.00 24 1011.2
20260830184556 65 274 0.0 2.0 0.00 0.00 0.00 26 1011.3
20260830183055 64 262 0.0 3.0 0.00 0.00 0.00 24 1011.4
20260830181605 63 198 0.0 2.0 0.00 0.00 0.00 26 1011.5
20260830180054 63 281 0.0 1.0 0.00 0.00 0.00 25 1011.6
20260830174547 62 249 0.0 1.0 0.00 0.00 0.00 25 1011.6
20260830173044 60 273 0.0 1.0 0.00 0.00 0.00 26 1011.6
20260830171541 60 245 0.0 1.0 0.00 0.00 0.00 29 1011.4
20260830170037 59 32 0.0 0.0 0.00 0.00 0.00 28 1011.3
20260830164536 57 253 0.0 0.0 0.00 0.00 0.00 30 1011.2
20260830163034 55 155 0.0 0.0 0.00 0.00 0.00 30 1011.1
20260830161524 53 155 0.0 0.0 0.00 0.00 0.00 36 1011.0
20260830160020 51 155 0.0 0.0 0.00 0.00 0.00 51 1011.0
20260830154517 49 155 0.0 0.0 0.00 0.00 0.00 58 1011.0
20260830153031 48 155 0.0 0.0 0.00 0.00 0.00 59 1011.1
20260830151526 46 155 0.0 0.0 0.00 0.00 0.00 58 1011.1
20260830150016 45 155 0.0 1.0 0.00 0.00 0.00 56 1011.1
20260830144523 43 200 0.0 0.0 0.00 0.00 0.00 53 1011.0
20260830143012 43 255 0.0 0.0 0.00 0.00 0.00 52 1010.9
20260830141511 43 39 0.0 0.0 0.00 0.00 0.00 51 1010.8
20260830140008 43 11 0.0 0.0 0.00 0.00 0.00 50 1010.6
20260830134513 43 34 0.0 0.0 0.00 0.00 0.00 47 1010.5
20260830133017 43 30 0.0 0.0 0.00 0.00 0.00 49 1010.2